Big Pine Key, Florida Weather Center

Moon Phase Calendar



Online Cameras

 


      

Current Conditions in Cudjoe Key
1/27/2022 5:36:06 AM

73°F
Feels Like 74
Clear
Humidity
93%
Pressure
29.97"
Wind
2 mph (N)
Dew Point
70°F
UV Index
0/10 (Low)
Visibility
6 mi

Hourly Forecast

Date & Time Thu, Jan 27
5:00 AM
Thu, Jan 27
6:00 AM
Thu, Jan 27
7:00 AM
Thu, Jan 27
8:00 AM
Thu, Jan 27
9:00 AM
Thu, Jan 27
10:00 AM
Thu, Jan 27
11:00 AM
Thu, Jan 27
12:00 PM
Thu, Jan 27
1:00 PM
Thu, Jan 27
2:00 PM
Thu, Jan 27
3:00 PM
Thu, Jan 27
4:00 PM
Thu, Jan 27
5:00 PM
Thu, Jan 27
6:00 PM
Thu, Jan 27
7:00 PM
Thu, Jan 27
8:00 PM
Thu, Jan 27
9:00 PM
Thu, Jan 27
10:00 PM
Thu, Jan 27
11:00 PM
Fri, Jan 28
12:00 AM
Fri, Jan 28
1:00 AM
Fri, Jan 28
2:00 AM
Fri, Jan 28
3:00 AM
Fri, Jan 28
4:00 AM
Fri, Jan 28
5:00 AM
Fri, Jan 28
6:00 AM
Fri, Jan 28
7:00 AM
Fri, Jan 28
8:00 AM
Fri, Jan 28
9:00 AM
Fri, Jan 28
10:00 AM
Fri, Jan 28
11:00 AM
Fri, Jan 28
12:00 PM
Fri, Jan 28
1:00 PM
Fri, Jan 28
2:00 PM
Fri, Jan 28
3:00 PM
Fri, Jan 28
4:00 PM
Fri, Jan 28
5:00 PM
Fri, Jan 28
6:00 PM
Fri, Jan 28
7:00 PM
Fri, Jan 28
8:00 PM
Fri, Jan 28
9:00 PM
Fri, Jan 28
10:00 PM
Fri, Jan 28
11:00 PM
Sat, Jan 29
12:00 AM
Sat, Jan 29
1:00 AM
Sat, Jan 29
2:00 AM
Sat, Jan 29
3:00 AM
Sat, Jan 29
4:00 AM
Condition
Clear

Clear

Clear

Clear

Clouds

Clouds

Clouds

Clouds

Clouds

Clouds

Clouds

Clouds

Clouds

Clouds

Clouds

Clouds

Clouds

Clouds

Clouds

Clouds

Clouds

Clouds

Clouds

Clouds

Clouds

Clouds

Clouds

Clouds

Clouds

Clouds

Clouds

Clouds

Clouds

Clouds

Clouds

Clouds

Clouds

Clouds

Clouds

Clouds

Clouds

Clouds

Clouds

Clouds

Clouds

Rain

Rain

Clouds
Temperature 73°F73°F73°F73°F72°F72°F71°F70°F70°F69°F70°F70°F70°F70°F70°F70°F70°F70°F70°F70°F70°F70°F70°F70°F70°F70°F70°F70°F70°F70°F69°F69°F69°F69°F69°F69°F69°F69°F69°F69°F69°F69°F69°F69°F68°F67°F67°F67°F
Feels Like 74°F74°F74°F74°F73°F73°F72°F71°F71°F70°F70°F71°F71°F71°F70°F70°F70°F70°F70°F70°F70°F70°F70°F70°F70°F70°F70°F70°F70°F70°F70°F70°F70°F70°F69°F69°F69°F69°F69°F69°F69°F69°F69°F69°F68°F67°F67°F67°F
Cloudiness 8%8%9%9%31%53%71%74%73%91%95%97%98%98%98%100%100%86%82%68%70%100%100%100%100%100%100%100%100%93%79%70%59%41%61%74%80%84%87%100%100%100%100%100%100%100%100%100%
Visibility 6 mi6 mi6 mi6 mi6 mi6 mi6 mi6 mi6 mi6 mi6 mi6 mi6 mi6 mi6 mi6 mi6 mi6 mi6 mi6 mi6 mi6 mi6 mi6 mi6 mi6 mi6 mi6 mi6 mi6 mi6 mi6 mi6 mi6 mi6 mi6 mi6 mi6 mi6 mi6 mi6 mi6 mi6 mi6 mi6 mi5 mi6 mi6 mi
Precipitation 49%53%53%20%12%16%15%15%15%1%1%1%1%0%0%0%0%0%0%0%0%0%0%0%0%0%0%0%0%0%0%0%0%0%0%0%0%0%0%0%0%0%0%0%10%70%96%73%
Humidity 91%93%91%90%90%89%91%92%93%92%89%87%87%87%87%86%85%84%83%83%82%80%80%80%80%81%81%81%82%82%82%81%80%80%81%82%79%78%77%75%74%73%72%74%76%86%70%73%
Dew Point 70°F70°F70°F70°F69°F68°F68°F68°F68°F67°F66°F66°F66°F66°F66°F65°F65°F65°F64°F64°F64°F63°F63°F63°F63°F64°F64°F64°F64°F64°F64°F63°F63°F63°F63°F63°F62°F61°F61°F60°F60°F60°F60°F60°F61°F62°F58°F58°F
Pressure 29.97"29.97"29.97"30"30.03"30.03"30.09"30.06"30.06"30.03"30"30"30"30"30.03"30.03"30.03"30.03"30.06"30.03"30.03"30"30"29.97"29.97"30"30"30"30.03"30.03"30.03"30.03"30"29.97"29.94"29.94"29.97"29.97"30"30"30"30"30"30"30"30"30"30"
Wind Speed 7.4 mph7.9 mph6.8 mph7 mph7.5 mph7.8 mph10.2 mph11.7 mph13.5 mph14.5 mph13.7 mph13.4 mph13.2 mph12.6 mph13.1 mph12.5 mph12.3 mph11.2 mph11 mph10.2 mph9.2 mph8.7 mph8.9 mph9.3 mph9.4 mph9.3 mph8.7 mph8.4 mph8.9 mph9.6 mph9.8 mph10.7 mph11.6 mph13.3 mph16.9 mph17.9 mph18.4 mph18.2 mph18.5 mph14.4 mph15.1 mph19.6 mph19.1 mph18.3 mph18.2 mph25.7 mph27.2 mph27.9 mph
Wind
Direction
213°
SSW
232°
SW
251°
WSW
275°
W
302°
WNW
308°
NW
321°
NW
327°
NNW
329°
NNW
330°
NNW
331°
NNW
336°
NNW
337°
NNW
338°
NNW
338°
NNW
337°
NNW
330°
NNW
324°
NW
319°
NW
313°
NW
305°
NW
298°
WNW
291°
WNW
294°
WNW
296°
WNW
299°
WNW
311°
NW
322°
NW
337°
NNW
344°
NNW
342°
NNW
333°
NNW
327°
NNW
324°
NW
323°
NW
324°
NW
326°
NW
331°
NNW
331°
NNW
327°
NNW
322°
NW
318°
NW
322°
NW
324°
NW
324°
NW
326°
NW
335°
NNW
328°
NNW

Daily Forecast

Date High Low Precip. Humidity
Today
Jan 27

Rain
73 °F
69 °F
98%
92%
Friday
Jan 28

Clouds
70 °F
69 °F
0%
81%
Saturday
Jan 29

Rain
68 °F
59 °F
93%
65%
Sunday
Jan 30

Clear
62 °F
55 °F
0%
45%
Monday
Jan 31

Clear
68 °F
60 °F
0%
66%
Tuesday
Feb 1

Rain
72 °F
68 °F
37%
74%
Wednesday
Feb 2

Rain
73 °F
72 °F
73%
84%
Thursday
Feb 3

Rain
74 °F
73 °F
41%
90%
Friday
Feb 4

Rain
74 °F
73 °F
60%
89%
Saturday
Feb 5

Rain
75 °F
67 °F
100%
92%
Sunday
Feb 6

Rain
67 °F
58 °F
79%
51%
Monday
Feb 7

Clouds
71 °F
59 °F
16%
80%
Tuesday
Feb 8

Rain
73 °F
71 °F
36%
86%
Wednesday
Feb 9

Clear
73 °F
72 °F
0%
87%
Thursday
Feb 10

Clear
73 °F
72 °F
1%
86%
Friday
Feb 11

Rain
74 °F
73 °F
75%
86%

Temperature 8-14 Day Outlook



Precipitation 8-14 Day Outlook




Quick Links
Big Pine Key, Florida News
Big Pine Key, Florida Photos
Big Pine Key, Florida Videos




About Us
Contact Us
Site Map
Search Site
Advertise With Us
   
BigPineKey.CoastalTown.com
THE BIG PINE KEY, FLORIDA WEBSITE

Copyright 2022, Coastal Town
Privacy    |    Legal